DW9945 Weather Reports


Display with metric or nautical units.
time (UTC)temp
F
wind
direction
speed
MPH
gust
MPH
rain 1hr
in
rain 24hr
in
rain mn
in
humidity
%
barometer
mb
20260505235520 46 11 2.0 3.0 0.00 0.00 0.00 74 1013.5
20260505235007 46 5 2.0 3.0 0.00 0.00 0.00 75 1013.5
20260505234519 46 15 0.0 3.0 0.00 0.00 0.00 75 1013.6
20260505234018 46 357 2.0 3.0 0.00 0.00 0.00 75 1013.7
20260505233518 46 8 2.0 5.0 0.00 0.00 0.00 75 1013.7
20260505232518 47 347 3.0 3.0 0.00 0.00 0.00 73 1013.6
20260505232018 47 5 0.0 0.0 0.00 0.00 0.00 73 1013.6
20260505231518 47 5 1.0 3.0 0.00 0.00 0.00 72 1013.5
20260505231018 48 4 2.0 3.0 0.00 0.00 0.00 70 1013.3
20260505230018 48 76 3.0 8.0 0.00 0.00 0.00 71 1013.4
20260505225518 48 61 3.0 7.0 0.00 0.00 0.00 71 1013.4
20260505225018 48 355 5.0 9.0 0.00 0.00 0.00 72 1013.3
20260505224518 48 357 6.0 8.0 0.00 0.00 0.00 71 1013.3
20260505223519 49 2 4.0 8.0 0.00 0.00 0.00 68 1013.3
20260505223018 50 47 4.0 8.0 0.00 0.00 0.00 66 1013.3
20260505222519 50 28 5.0 9.0 0.00 0.00 0.00 66 1013.2
20260505222007 50 29 6.0 12.0 0.00 0.00 0.00 66 1013.2
20260505221518 50 357 8.0 12.0 0.00 0.00 0.00 67 1013.2
20260505221018 50 1 8.0 16.0 0.00 0.00 0.00 65 1013.2
20260505220519 50 358 10.0 14.0 0.00 0.00 0.00 64 1013.2
20260505220018 51 352 12.0 16.0 0.00 0.00 0.00 63 1013.2
20260505215019 50 342 9.0 12.0 0.00 0.00 0.00 61 1013.1
20260505214519 51 343 7.0 12.0 0.00 0.00 0.00 60 1013.2
20260505214018 51 338 8.0 9.0 0.00 0.00 0.00 59 1013.2
20260505213519 51 326 6.0 8.0 0.00 0.00 0.00 60 1013.2
20260505213018 50 329 4.0 6.0 0.00 0.00 0.00 63 1013.1
20260505212018 50 333 5.0 8.0 0.00 0.00 0.00 60 1013.0
20260505211518 50 340 5.0 5.0 0.00 0.00 0.00 61 1013.1
20260505211018 50 345 5.0 5.0 0.00 0.00 0.00 62 1013.1
20260505210508 50 336 3.0 5.0 0.00 0.00 0.00 61 1013.0
20260505210018 51 346 5.0 5.0 0.00 0.00 0.00 60 1013.1
20260505205518 51 357 2.0 3.0 0.00 0.00 0.00 60 1013.1
20260505205018 51 359 2.0 5.0 0.00 0.00 0.00 60 1013.1
20260505204518 51 15 4.0 5.0 0.00 0.00 0.00 59 1013.1
20260505204018 52 3 3.0 3.0 0.00 0.00 0.00 57 1013.0
20260505203518 52 13 3.0 5.0 0.00 0.00 0.00 57 1013.1
20260505203018 52 8 2.0 5.0 0.00 0.00 0.00 57 1012.9
20260505202518 53 318 5.0 6.0 0.00 0.00 0.00 54 1012.8
20260505201518 54 321 8.0 10.0 0.00 0.00 0.00 50 1012.8
20260505201019 54 322 9.0 10.0 0.00 0.00 0.00 51 1012.8
20260505200018 55 338 6.0 8.0 0.00 0.00 0.00 50 1012.7
20260505195518 55 326 6.0 8.0 0.00 0.00 0.00 48 1012.5
20260505195018 54 332 6.0 9.0 0.00 0.00 0.00 49 1012.5
20260505194018 55 317 5.0 8.0 0.00 0.00 0.00 50 1012.2
20260505193518 55 336 6.0 9.0 0.00 0.00 0.00 49 1012.1
20260505193018 56 329 7.0 9.0 0.00 0.00 0.00 48 1012.3
20260505192518 56 325 8.0 9.0 0.00 0.00 0.00 46 1012.2
20260505192017 56 324 8.0 9.0 0.00 0.00 0.00 45 1012.1
20260505191518 57 319 8.0 10.0 0.00 0.00 0.00 44 1012.1
20260505190519 58 317 7.0 9.0 0.00 0.00 0.00 42 1012.0
20260505190018 58 318 7.0 9.0 0.00 0.00 0.00 41 1011.9
20260505184508 59 311 9.0 14.0 0.00 0.00 0.00 38 1011.7
20260505183519 60 310 11.0 17.0 0.00 0.00 0.00 37 1011.7
20260505183018 61 301 10.0 15.0 0.00 0.00 0.00 37 1011.7
20260505182518 61 291 10.0 15.0 0.00 0.00 0.00 36 1011.6
20260505182017 61 292 9.0 17.0 0.00 0.00 0.00 36 1011.6
20260505181518 61 328 9.0 15.0 0.00 0.00 0.00 38 1011.6
20260505180518 61 319 9.0 17.0 0.00 0.00 0.00 37 1011.6
20260505180018 61 310 13.0 17.0 0.00 0.00 0.00 36 1011.5
20260505175518 62 301 9.0 13.0 0.00 0.00 0.00 36 1011.5
20260505175007 62 319 12.0 17.0 0.00 0.00 0.00 35 1011.5
20260505174007 62 308 11.0 17.0 0.00 0.00 0.00 36 1011.5
20260505172517 62 290 10.0 16.0 0.00 0.00 0.00 33 1011.5
20260505171507 62 295 9.0 15.0 0.00 0.00 0.00 34 1011.4
20260505171018 63 310 12.0 16.0 0.00 0.00 0.00 34 1011.4
20260505170518 62 297 10.0 17.0 0.00 0.00 0.00 34 1011.4
20260505170019 63 289 13.0 20.0 0.00 0.00 0.00 33 1011.3
20260505165518 63 300 12.0 16.0 0.00 0.00 0.00 32 1011.3
20260505165018 63 288 11.0 16.0 0.00 0.00 0.00 32 1011.3
20260505164519 63 303 13.0 17.0 0.00 0.00 0.00 32 1011.3
20260505164020 63 287 13.0 17.0 0.00 0.00 0.00 32 1011.3
20260505163018 64 317 9.0 13.0 0.00 0.00 0.00 33 1011.3
20260505162517 63 292 9.0 15.0 0.00 0.00 0.00 30 1011.3
20260505162017 64 288 10.0 16.0 0.00 0.00 0.00 32 1011.4
20260505161517 63 291 12.0 20.0 0.00 0.00 0.00 33 1011.3
20260505153017 64 303 12.0 18.0 0.00 0.00 0.00 33 1011.2
20260505152517 64 286 10.0 16.0 0.00 0.00 0.00 35 1011.3
20260505152018 64 278 9.0 15.0 0.00 0.00 0.00 33 1011.3
20260505151518 64 282 10.0 18.0 0.00 0.00 0.00 32 1011.4
20260505151018 63 280 7.0 20.0 0.00 0.00 0.00 34 1011.4
20260505150518 63 297 14.0 20.0 0.00 0.00 0.00 34 1011.4
20260505140518 64 260 6.0 16.0 0.00 0.00 0.00 35 1011.7
20260505125017 62 297 7.0 15.0 0.00 0.00 0.00 42 1012.3
20260505124506 62 287 9.0 15.0 0.00 0.00 0.00 40 1012.2
20260505124017 63 268 6.0 14.0 0.00 0.00 0.00 37 1012.2
20260505123506 63 224 8.0 12.0 0.00 0.00 0.00 38 1012.3
20260505122506 63 287 7.0 15.0 0.00 0.00 0.00 40 1012.3
20260505122017 62 279 3.0 12.0 0.00 0.00 0.00 42 1012.2
20260505121517 62 303 10.0 13.0 0.00 0.00 0.00 45 1012.4
20260505120517 62 240 6.0 13.0 0.00 0.00 0.00 40 1012.4
20260505120018 62 245 7.0 15.0 0.00 0.00 0.00 40 1012.5
20260505114517 61 253 9.0 14.0 0.00 0.00 0.00 41 1012.5
20260505114017 61 259 6.0 12.0 0.00 0.00 0.00 43 1012.5
20260505113518 61 233 9.0 13.0 0.00 0.00 0.00 42 1012.5
20260505113018 61 282 5.0 13.0 0.00 0.00 0.00 44 1012.6
20260505112517 61 229 5.0 14.0 0.00 0.00 0.00 44 1012.7
20260505112017 60 235 7.0 12.0 0.00 0.00 0.00 44 1012.8
20260505111518 60 228 8.0 13.0 0.00 0.00 0.00 44 1012.7
20260505111017 61 296 9.0 12.0 0.00 0.00 0.00 43 1012.7
20260505110517 61 199 7.0 12.0 0.00 0.00 0.00 43 1012.7
20260505102019 59 204 5.0 12.0 0.00 0.00 0.00 50 1013.2
20260505101519 59 193 7.0 14.0 0.00 0.00 0.00 50 1013.2
20260505101019 59 202 3.0 12.0 0.00 0.00 0.00 48 1013.1
20260505100519 59 233 5.0 9.0 0.00 0.00 0.00 47 1013.2
20260505100019 59 202 4.0 7.0 0.00 0.00 0.00 49 1013.1
20260505095519 58 87 4.0 9.0 0.00 0.00 0.00 49 1013.1
20260505095008 58 18 1.0 3.0 0.00 0.00 0.00 50 1013.0
20260505094519 58 296 3.0 6.0 0.00 0.00 0.00 51 1013.0
20260505094019 58 290 3.0 6.0 0.00 0.00 0.00 50 1013.0
20260505093508 58 266 3.0 8.0 0.00 0.00 0.00 50 1013.1
20260505093019 58 173 2.0 6.0 0.00 0.00 0.00 52 1013.0
20260505092519 58 67 3.0 6.0 0.00 0.00 0.00 53 1013.1
20260505092019 58 169 3.0 7.0 0.00 0.00 0.00 54 1013.1
20260505091519 58 156 2.0 6.0 0.00 0.00 0.00 55 1013.1
20260505091019 57 194 4.0 7.0 0.00 0.00 0.00 55 1013.1
20260505090519 57 210 2.0 3.0 0.00 0.00 0.00 55 1013.2
20260505090018 57 152 2.0 5.0 0.00 0.00 0.00 55 1013.2
20260505085519 57 63 3.0 6.0 0.00 0.00 0.00 55 1013.2
20260505085018 57 133 3.0 7.0 0.00 0.00 0.00 56 1013.2
20260505084519 56 180 1.0 6.0 0.00 0.00 0.00 57 1013.3
20260505084019 56 83 2.0 3.0 0.00 0.00 0.00 59 1013.3
20260505083519 55 74 3.0 5.0 0.00 0.00 0.00 59 1013.3
20260505082019 54 31 3.0 5.0 0.00 0.00 0.00 61 1013.5
20260505081519 55 112 1.0 6.0 0.00 0.00 0.00 61 1013.4
20260505081019 55 45 2.0 5.0 0.00 0.00 0.00 62 1013.3
20260505080019 54 70 3.0 8.0 0.00 0.00 0.00 62 1013.4
20260505075519 54 149 2.0 8.0 0.00 0.00 0.00 64 1013.4
20260505074519 53 178 1.0 6.0 0.00 0.00 0.00 67 1013.3
20260505074019 53 86 2.0 3.0 0.00 0.00 0.00 67 1013.3
20260505073519 53 71 3.0 6.0 0.00 0.00 0.00 67 1013.3
20260505073018 53 113 3.0 7.0 0.00 0.00 0.00 67 1013.3
20260505072018 52 104 1.0 3.0 0.00 0.00 0.00 69 1013.3
20260505071519 52 158 0.0 0.0 0.00 0.00 0.00 72 1013.2
20260505071018 51 158 0.0 0.0 0.00 0.00 0.00 72 1013.2
20260505070519 51 158 0.0 0.0 0.00 0.00 0.00 73 1013.1
20260505070019 51 158 0.0 0.0 0.00 0.00 0.00 78 1013.2
20260505065519 50 158 0.0 0.0 0.00 0.00 0.00 83 1013.2
20260505065019 50 158 0.0 0.0 0.00 0.00 0.00 84 1013.3
20260505064508 50 158 0.0 0.0 0.00 0.00 0.00 83 1013.2
20260505064019 50 158 0.0 0.0 0.00 0.00 0.00 82 1013.1
20260505063519 49 158 0.0 0.0 0.00 0.00 0.00 82 1013.1
20260505063019 49 158 0.0 0.0 0.00 0.00 0.00 84 1013.1
20260505062519 49 158 0.0 0.0 0.00 0.00 0.00 83 1013.1
20260505062019 49 158 0.0 0.0 0.00 0.00 0.00 82 1013.1
20260505061519 48 158 0.0 0.0 0.00 0.00 0.00 82 1013.1
20260505061018 48 158 0.0 0.0 0.00 0.00 0.00 83 1013.1
20260505060019 48 158 0.0 0.0 0.00 0.00 0.00 83 1013.1
20260505055519 48 158 0.0 0.0 0.00 0.00 0.00 82 1012.9
20260505054519 48 158 0.0 0.0 0.00 0.00 0.00 82 1012.9
20260505053519 48 158 0.0 0.0 0.00 0.00 0.00 81 1012.9
20260505052518 48 158 0.0 0.0 0.00 0.00 0.00 81 1012.8
20260505052018 48 158 0.0 0.0 0.00 0.00 0.00 80 1012.8
20260505051508 49 158 0.0 0.0 0.00 0.00 0.00 79 1012.8
20260505051019 49 158 0.0 0.0 0.00 0.00 0.00 78 1012.8
20260505041519 50 273 0.0 0.0 0.00 0.00 0.00 79 1012.9
20260505041018 50 273 0.0 3.0 0.00 0.00 0.00 79 1012.8
20260505040518 50 82 0.0 2.0 0.00 0.00 0.00 77 1012.7
20260505040007 50 82 0.0 3.0 0.00 0.00 0.00 78 1012.7
20260505035518 50 72 2.0 3.0 0.00 0.00 0.00 79 1012.6
20260505035019 50 46 0.0 0.0 0.00 0.00 0.00 79 1012.6
20260505034519 50 46 0.0 0.0 0.00 0.00 0.00 79 1012.7
20260505034018 50 46 0.0 0.0 0.00 0.00 0.00 79 1012.6
20260505033508 50 46 1.0 3.0 0.00 0.00 0.00 78 1012.6
20260505033019 51 97 0.0 0.0 0.00 0.00 0.00 77 1012.7
20260505032519 51 97 0.0 0.0 0.00 0.00 0.00 76 1012.8
20260505032019 51 97 0.0 0.0 0.00 0.00 0.00 76 1012.8
20260505031018 51 113 0.0 0.0 0.00 0.00 0.00 76 1012.8
20260505030018 50 113 0.0 0.0 0.00 0.00 0.00 76 1012.9
20260505025519 50 113 0.0 3.0 0.00 0.00 0.00 77 1012.8
20260505025007 50 114 2.0 6.0 0.00 0.00 0.00 77 1012.9
20260505024519 49 29 0.0 0.0 0.00 0.00 0.00 77 1012.9
20260505024007 49 283 1.0 3.0 0.00 0.00 0.00 78 1012.9
20260505023519 50 284 1.0 3.0 0.00 0.00 0.00 78 1012.9
20260505023018 50 13 0.0 0.0 0.00 0.00 0.00 77 1012.9
20260505022019 49 13 0.0 0.0 0.00 0.00 0.00 79 1012.9
20260505021518 50 13 0.0 0.0 0.00 0.00 0.00 79 1012.9
20260505021018 50 13 0.0 0.0 0.00 0.00 0.00 80 1013.0
20260505020019 50 13 0.0 0.0 0.00 0.00 0.00 79 1012.9
20260505015518 50 13 0.0 0.0 0.00 0.00 0.00 81 1012.8
20260505015018 51 13 0.0 0.0 0.00 0.00 0.00 80 1012.9
20260505014019 50 13 0.0 0.0 0.00 0.00 0.00 79 1012.9
20260505013519 50 13 0.0 0.0 0.00 0.00 0.00 79 1013.0
20260505013019 50 13 0.0 0.0 0.00 0.00 0.00 79 1013.1
20260505012518 50 13 0.0 0.0 0.00 0.00 0.00 79 1013.1
20260505012018 50 13 1.0 3.0 0.00 0.00 0.00 79 1013.1
20260505011518 50 13 1.0 3.0 0.00 0.00 0.00 80 1013.1
20260505010520 50 25 2.0 3.0 0.00 0.00 0.00 81 1013.2
20260505005007 49 25 0.0 0.0 0.00 0.00 0.00 80 1013.4
20260505004508 49 25 1.0 3.0 0.00 0.00 0.00 80 1013.3
20260505004007 49 25 3.0 3.0 0.00 0.00 0.00 80 1013.4
20260505003508 49 25 3.0 3.0 0.00 0.00 0.00 81 1013.4
20260505003007 48 25 2.0 3.0 0.00 0.00 0.00 81 1013.3
20260505002507 48 25 2.0 3.0 0.00 0.00 0.00 80 1013.2
20260505002008 48 12 2.0 3.0 0.00 0.00 0.00 79 1013.3
20260505001507 48 9 3.0 3.0 0.00 0.00 0.00 80 1013.2
20260505001008 48 13 2.0 3.0 0.00 0.00 0.00 79 1013.2
20260505000507 49 24 0.0 0.0 0.00 0.00 0.00 78 1013.2